Theta_e
316 313 315 323 318 314 316 318 317 319 320 323 325 323 328 336 339 338 337 327 324 325 324 324 324 323 323 323 323 323 323 322 321 320 320 320 320 319 319 319 319 319 318 318 318 318 319 319 319
314 313 320 322 317 317 316 317 321 320 322 324 324 327 335 338 340 338 332 327 325 326 325 325 325 324 323 324 324 324 323 323 322 322 321 321 321 321 320 320 320 319 319 319 319 319 319 319 319
314 319 322 318 317 317 317 318 320 321 323 322 323 324 335 339 341 338 329 327 323 326 326 326 325 324 324 324 324 324 324 323 323 323 322 322 322 321 321 321 321 320 320 320 320 319 319 319 319
324 323 325 320 320 318 319 318 319 319 322 322 322 323 335 339 340 337 328 326 324 326 326 326 326 324 324 324 324 325 324 324 323 323 322 322 321 321 321 321 321 321 321 320 320 320 320 320 320
323 322 320 316 318 318 319 319 320 318 319 321 322 322 325 339 338 336 332 327 326 326 327 326 326 325 325 324 324 324 324 324 323 322 322 321 321 321 321 321 321 321 321 321 321 320 320 320 320
325 318 316 319 318 319 319 320 320 320 321 324 322 321 332 338 336 335 334 327 326 328 327 327 326 325 325 324 324 324 324 323 323 322 321 320 320 320 319 319 320 320 321 321 321 321 321 321 321
325 317 318 316 319 323 322 323 322 320 321 324 324 321 336 336 336 337 336 328 325 327 327 326 326 324 324 323 323 323 323 323 322 322 321 320 320 320 319 319 319 319 320 320 320 321 321 321 321
327 322 326 323 321 324 324 324 325 325 324 327 325 323 327 333 337 338 337 328 325 327 327 326 325 324 323 322 321 322 322 322 322 322 322 321 320 319 319 319 319 318 319 319 320 320 320 321 320
320 323 326 326 326 324 325 324 325 327 327 326 325 325 328 338 339 338 335 326 325 327 327 326 326 324 324 323 322 322 322 321 321 322 323 322 322 320 319 318 318 318 318 318 319 319 320 320 320
318 317 324 324 324 325 325 325 326 326 326 326 327 327 327 327 340 341 331 326 325 327 327 327 326 325 325 324 324 324 323 322 323 324 325 325 324 321 320 318 318 317 316 316 317 318 318 319 319
318 318 321 323 324 324 324 324 324 324 325 326 326 327 327 327 327 339 334 330 326 326 326 326 326 326 326 325 325 325 325 324 325 325 325 326 324 322 321 320 320 318 316 316 315 316 317 318 318
314 316 319 321 321 322 322 323 324 324 324 325 326 325 326 326 328 328 328 332 331 326 327 327 326 326 327 326 327 327 327 327 326 326 326 326 327 325 325 326 325 324 320 317 315 315 315 316 316
312 312 314 314 314 316 318 320 322 321 320 321 323 325 326 325 326 328 328 329 333 332 327 327 327 328 327 327 327 328 328 328 328 328 328 328 328 328 329 331 333 334 332 329 323 317 316 318 325
310 310 311 312 312 313 314 315 317 318 318 318 319 321 323 325 325 325 327 328 333 335 336 330 327 328 327 327 328 328 329 329 329 328 330 330 329 329 330 333 334 336 338 338 335 328 322 326 334
311 309 309 311 313 313 315 313 315 317 318 318 318 319 319 321 324 325 325 325 327 328 332 338 338 334 332 331 331 331 330 330 329 329 331 330 328 329 331 334 335 337 340 341 340 334 328 332 335
309 306 307 309 310 312 313 315 315 315 314 315 315 316 315 316 318 322 325 326 325 326 327 331 335 338 338 336 334 332 331 330 330 331 332 329 328 328 330 335 335 338 341 342 341 338 332 333 337
305 307 309 309 309 309 311 310 310 313 313 313 314 314 314 314 316 316 318 323 325 326 326 326 329 334 337 338 338 335 334 335 337 335 331 328 328 327 328 332 336 339 342 343 342 341 336 335 336
309 308 309 310 311 310 309 310 311 312 312 313 313 313 313 314 314 314 315 316 318 322 325 326 326 330 335 338 338 339 338 338 340 338 333 328 329 328 329 330 336 338 341 344 343 342 338 337 338
310 310 309 310 310 310 309 310 310 311 311 311 312 313 313 312 313 313 314 314 317 319 321 325 326 325 329 335 339 339 339 339 340 336 336 334 330 328 330 330 332 338 341 343 344 342 340 338 338
309 310 310 310 312 312 310 311 310 309 310 311 312 312 312 311 311 311 312 313 315 317 318 321 324 326 326 334 337 338 338 339 336 334 336 333 330 330 329 328 332 339 342 343 344 343 341 341 339
310 313 313 313 312 312 310 312 311 310 310 311 311 311 311 311 311 312 313 313 313 315 317 318 321 324 326 330 336 339 339 338 336 335 336 333 332 328 326 328 338 341 343 343 344 344 342 342 340
312 312 312 312 311 311 311 311 311 310 309 309 311 311 310 312 313 314 314 313 314 314 316 318 318 323 326 327 334 339 338 336 334 333 334 333 330 327 327 334 341 342 343 344 345 344 344 342 339
310 312 311 312 311 310 310 308 309 309 310 308 307 313 314 315 315 315 315 314 313 314 315 316 317 320 325 328 328 336 338 336 333 333 334 330 328 327 326 340 343 343 344 345 345 344 341 341 339
311 311 308 308 307 309 309 308 308 308 308 309 313 314 314 314 313 313 315 316 315 313 314 315 316 319 323 328 329 331 336 336 336 334 331 328 328 326 326 337 344 344 345 345 344 341 340 342 341
307 306 307 308 310 311 309 310 308 309 311 313 314 314 314 313 311 312 312 312 315 316 314 315 316 317 323 325 329 331 333 336 335 332 330 328 326 324 324 333 343 345 346 345 341 340 341 340 338
308 307 306 310 311 308 309 310 308 309 314 314 314 313 312 312 312 312 313 313 316 318 317 316 316 318 320 325 333 333 333 336 333 331 328 326 325 324 324 338 345 346 342 342 341 342 341 339 339
308 308 306 309 308 309 308 308 308 309 313 313 312 312 312 313 313 313 313 314 319 318 319 319 317 318 320 325 330 333 334 334 332 329 327 325 326 326 331 344 346 345 340 341 342 342 338 338 338
309 309 309 305 311 312 310 309 310 310 311 313 311 311 313 313 312 313 315 316 319 318 323 326 321 321 322 324 328 327 331 331 331 328 327 326 327 327 338 346 346 344 339 342 342 339 338 337 336
307 309 309 306 306 307 311 310 308 311 311 311 310 312 313 313 313 314 317 319 319 320 322 329 327 323 322 322 325 329 331 331 329 327 327 328 329 330 341 347 346 341 341 340 340 339 336 334 332
307 309 309 306 308 310 310 311 309 311 311 310 311 313 313 313 313 315 317 318 318 321 325 333 334 328 322 322 324 327 330 330 328 328 327 329 332 331 343 347 343 341 341 339 340 337 334 332 330
Wind_Speed
3 3 4 2 2 5 3 6 3 8 6 6 33 12 15 28 14 6 15 41 37 38 38 36 34 33 31 28 26 24 22 21 19 18 17 15 13 11 10 9 8 7 6 6 5 4 4 5 5
3 5 4 3 3 2 5 4 7 5 14 29 26 20 3 8 21 5 33 38 42 41 40 38 36 35 32 29 26 24 22 20 18 17 15 14 12 11 9 8 7 5 5 4 4 4 4 4 4
3 6 3 3 3 5 5 4 3 10 22 23 9 16 9 6 26 15 34 42 44 42 41 38 36 35 32 29 27 24 21 19 17 16 14 12 11 10 9 7 6 5 4 3 2 1 2 2 3
3 3 3 3 10 4 4 5 6 11 23 11 17 9 6 18 19 29 43 42 45 43 41 38 36 35 32 29 27 23 20 18 16 15 14 13 12 10 9 8 7 6 6 4 3 3 1 0 1
3 1 2 3 6 4 3 4 9 8 10 23 22 10 8 15 24 34 44 44 44 43 42 39 37 34 31 29 26 22 19 17 16 15 14 13 12 11 10 10 9 8 8 7 6 6 5 4 2
3 2 3 6 8 2 3 5 5 6 13 27 15 15 5 12 25 40 43 46 44 42 41 39 37 34 31 29 26 23 19 17 16 15 14 13 12 12 12 12 11 11 11 10 9 9 8 8 6
3 1 4 4 4 4 1 5 5 5 9 12 28 7 10 8 16 40 43 46 45 41 40 39 36 35 32 29 26 24 20 17 16 15 14 14 14 14 14 14 14 14 14 13 13 12 11 11 9
4 2 3 5 4 4 4 7 9 10 10 27 15 6 10 15 18 35 41 47 45 42 39 38 37 35 32 30 27 24 22 19 16 15 14 15 16 16 17 17 17 17 17 16 17 15 14 13 13
5 2 4 4 3 3 13 3 2 17 12 23 13 19 24 3 14 32 40 45 44 42 39 37 37 35 32 30 28 26 24 22 20 18 17 17 19 18 19 20 19 19 20 20 19 19 17 16 15
5 4 7 3 2 4 12 9 18 13 25 21 28 27 24 17 2 21 27 40 44 41 39 37 35 34 32 30 29 28 26 25 23 21 19 18 19 19 20 21 21 21 22 22 22 21 21 19 17
6 6 4 3 5 10 14 20 17 15 17 9 22 26 28 20 8 8 9 29 38 41 40 39 38 35 33 32 30 29 28 26 24 23 21 20 20 20 21 21 21 22 23 24 25 23 23 21 19
4 5 5 2 14 14 8 19 20 24 30 23 24 31 28 24 16 11 10 17 33 40 41 41 39 37 36 34 32 31 30 27 27 24 23 22 21 20 19 19 19 19 21 22 25 24 23 22 20
4 3 7 8 10 15 23 19 16 38 33 21 25 28 26 25 21 15 15 15 25 38 42 43 41 40 39 38 36 34 33 30 28 26 25 23 22 20 18 17 15 15 16 18 21 22 21 18 15
5 4 9 4 7 9 9 15 15 34 24 26 20 21 21 20 21 21 17 14 12 29 44 43 43 43 42 41 39 37 36 32 30 28 26 25 23 20 19 18 14 13 13 13 16 17 17 14 12
5 6 5 4 6 7 12 11 17 31 27 28 28 30 31 23 19 23 23 23 18 15 17 29 43 41 42 42 41 39 37 33 31 28 27 26 23 21 20 19 16 13 13 13 14 15 17 15 15
4 4 3 4 4 7 7 19 8 9 16 16 15 18 22 19 18 20 25 28 24 21 21 22 26 37 44 41 43 39 34 32 29 29 28 26 24 23 22 21 17 15 15 16 15 15 17 15 14
6 1 2 7 5 4 4 6 7 19 12 18 17 21 27 31 28 22 21 22 27 28 25 26 25 29 35 47 42 40 34 29 27 27 28 26 24 24 24 23 19 18 18 20 18 16 17 16 15
3 1 3 4 6 5 10 11 6 12 9 11 15 22 26 27 29 29 29 23 23 26 33 31 24 26 37 38 44 43 33 30 28 27 27 27 26 25 25 25 22 20 20 23 21 18 17 16 14
2 3 6 5 6 5 9 18 10 8 7 9 13 20 22 27 29 31 30 27 25 24 26 32 32 27 30 42 41 43 40 35 33 30 30 28 26 26 27 26 23 21 19 22 22 19 16 16 17
4 3 2 3 4 7 8 22 13 5 7 8 13 13 19 32 34 32 32 31 28 28 27 29 35 34 30 40 42 40 41 42 37 34 32 27 26 26 28 28 22 19 18 20 22 21 19 16 18
2 2 3 4 5 5 7 19 6 3 6 12 8 17 27 27 28 29 30 30 29 30 31 29 31 35 35 32 49 47 48 45 41 39 33 30 27 27 28 26 19 17 17 18 22 21 20 19 20
3 1 2 5 7 3 4 11 17 5 6 3 19 25 20 18 24 28 32 36 34 34 33 32 30 29 33 32 40 52 51 48 42 38 36 27 26 28 29 22 18 16 17 19 20 19 21 20 20
5 2 3 3 5 3 4 4 3 12 13 8 7 11 18 23 29 32 33 37 41 38 37 34 32 29 30 37 36 48 52 52 43 38 28 25 25 28 25 19 17 16 19 18 19 19 19 19 19
2 2 4 3 1 2 9 7 6 2 1 3 4 16 22 23 27 31 33 36 41 42 40 38 36 31 29 37 39 47 54 53 45 33 29 25 26 24 22 19 18 17 18 18 18 19 20 16 17
6 6 4 4 3 4 3 4 9 12 6 6 6 16 23 27 32 33 34 37 37 42 42 40 39 34 29 38 45 47 52 51 43 37 30 26 25 24 23 20 18 18 18 18 17 19 18 16 14
4 7 4 5 3 9 6 6 6 5 7 6 7 14 20 31 37 41 41 41 33 38 41 41 42 38 32 37 38 39 46 47 42 36 29 25 24 23 21 18 18 15 14 17 19 19 15 16 14
3 3 5 3 2 2 5 10 8 9 5 4 13 19 23 31 37 45 48 46 31 32 36 39 42 41 33 36 38 32 42 46 42 34 29 25 23 24 20 19 19 15 15 17 20 18 16 15 14
2 2 1 2 3 5 5 6 9 12 9 6 8 15 27 29 38 45 50 45 30 34 31 34 40 41 32 36 42 41 41 42 41 34 31 28 26 22 20 22 20 16 19 20 17 18 16 14 14
2 1 3 2 3 4 4 7 6 6 8 7 10 21 22 30 37 41 40 36 27 33 28 24 30 36 35 37 39 48 47 45 38 32 33 30 28 22 22 24 21 20 21 20 17 17 14 13 13
6 6 5 4 5 4 3 15 7 5 8 8 16 24 21 26 37 38 38 30 30 26 26 24 15 24 37 38 40 43 45 40 37 37 31 30 29 21 24 26 23 23 22 21 17 16 14 12 12
Wind_Direction
283 214 185 182 51 71 257 256 269 312 324 303 306 266 236 205 165 207 166 169 167 165 163 164 166 163 165 160 158 157 156 156 154 151 151 150 150 148 145 142 139 134 133 129 123 116 103 94 90
248 171 166 139 109 139 261 245 244 265 291 314 321 329 208 196 176 208 156 168 169 166 165 166 169 167 168 165 166 164 165 164 163 163 162 161 161 160 159 157 152 151 149 145 132 132 125 107 92
202 163 152 136 169 196 219 228 346 301 321 312 302 306 276 237 191 183 173 168 172 167 169 168 172 171 171 173 172 171 172 173 173 175 175 177 179 180 178 178 179 182 189 181 165 176 123 95 84
146 171 84 113 239 260 207 313 322 328 327 326 328 300 297 225 202 178 167 170 172 171 170 172 176 175 176 181 179 178 180 182 184 188 190 192 197 200 203 205 208 215 224 226 237 252 273 310 33
178 207 76 278 253 244 221 279 310 300 288 306 321 305 285 210 176 176 171 173 175 174 173 176 179 178 180 187 186 185 188 191 195 199 204 207 212 215 219 223 227 230 238 244 247 258 272 284 285
232 205 100 242 243 309 291 279 304 297 304 325 331 326 297 202 181 172 175 176 178 176 176 178 182 183 186 191 193 193 196 199 202 209 214 219 226 230 231 235 237 240 245 247 252 256 265 273 278
181 148 212 251 271 321 322 309 283 312 319 327 324 316 321 267 206 178 179 180 179 180 180 183 185 189 191 195 202 200 201 207 210 215 222 228 234 240 242 244 245 246 249 251 254 254 261 269 275
190 120 231 229 267 287 273 338 309 352 314 334 345 11 330 326 212 191 186 183 183 182 186 186 189 193 195 198 206 207 206 212 219 224 230 237 242 243 247 250 251 251 251 253 256 258 258 264 274
162 169 228 230 140 230 312 356 186 325 313 334 334 347 17 81 210 190 187 186 188 187 191 192 194 197 199 202 206 212 211 213 219 227 236 242 247 249 253 255 255 257 256 255 257 260 261 262 267
168 179 220 225 101 322 296 305 322 333 316 316 315 329 353 12 285 200 195 194 193 194 195 199 202 203 203 206 210 216 218 218 219 227 238 248 253 255 257 259 260 260 259 257 256 259 262 263 267
196 203 208 285 313 305 302 301 314 296 284 297 301 318 330 335 9 178 257 221 205 201 202 205 206 208 209 212 214 219 223 226 226 229 237 247 254 256 259 262 265 265 264 262 259 260 263 268 272
251 248 238 256 284 290 273 297 300 279 269 288 293 302 306 311 322 318 312 257 237 212 209 210 209 211 213 216 219 224 227 230 233 236 238 244 252 257 262 265 268 269 267 267 265 262 265 268 274
201 273 296 320 301 284 284 279 267 279 285 295 298 298 294 299 297 310 303 317 243 235 221 217 216 217 217 219 221 225 228 232 235 240 244 247 250 256 260 264 265 272 269 268 266 264 262 265 269
331 300 298 295 276 248 248 270 270 268 292 302 302 305 298 286 287 292 290 298 327 245 235 228 220 221 222 222 225 228 230 232 236 237 244 251 253 255 258 261 265 270 274 272 270 268 258 253 249
318 337 341 217 247 233 239 259 247 273 295 295 302 296 302 300 287 280 287 289 290 286 270 248 245 231 227 227 229 230 231 233 235 233 246 249 257 261 263 264 269 277 279 272 267 260 244 235 241
14 43 16 278 262 259 192 253 284 334 342 336 353 326 337 333 327 310 300 291 285 284 270 270 250 247 239 234 232 235 234 232 231 239 248 246 257 268 272 269 275 283 276 271 268 265 244 239 245
14 193 258 309 320 281 194 311 328 327 328 320 333 331 331 325 320 326 315 301 299 285 278 269 265 253 247 240 240 236 231 232 234 242 246 249 257 268 275 280 283 282 277 271 267 267 255 247 248
248 251 249 261 299 317 296 274 269 299 306 305 319 328 330 329 329 327 327 313 313 291 285 268 264 258 251 242 239 242 234 235 240 243 245 249 256 265 272 280 285 278 273 271 263 263 257 252 257
237 239 247 269 285 312 289 294 300 284 276 287 309 320 323 326 328 319 314 312 301 297 295 278 268 269 262 245 235 231 231 234 238 248 250 246 252 263 273 280 279 274 271 270 263 261 255 252 257
185 208 252 272 320 327 305 292 293 270 258 269 301 314 322 319 321 320 313 312 303 300 298 288 279 273 263 244 232 227 227 231 237 246 246 247 251 260 273 278 277 273 269 261 253 253 248 245 250
341 111 334 271 302 266 307 290 258 264 285 305 303 311 310 311 318 326 320 314 305 294 296 299 289 274 269 254 238 234 227 229 233 241 240 242 250 264 274 274 266 267 262 260 250 250 243 240 243
338 77 324 330 350 305 53 290 290 267 271 297 299 308 331 331 320 318 316 313 307 289 291 293 298 281 261 251 245 235 229 229 235 241 242 243 254 267 273 260 257 262 262 252 245 249 242 239 242
241 312 289 276 263 278 206 257 283 332 304 284 335 336 324 320 319 317 316 309 301 297 291 286 293 283 261 245 242 238 232 234 241 242 238 244 258 267 261 256 252 257 253 245 241 239 234 234 240
346 337 353 358 44 281 211 200 314 208 305 269 284 318 313 313 319 318 312 307 302 292 289 281 285 285 253 250 245 234 236 237 236 238 235 247 262 262 256 247 245 255 248 244 241 227 230 237 241
62 50 339 338 357 242 303 313 266 288 249 196 253 305 316 317 322 321 322 315 305 299 290 281 279 280 260 247 250 236 236 237 232 239 241 251 258 256 250 241 240 246 252 238 209 223 228 226 231
252 161 162 259 223 280 307 249 250 252 246 279 312 309 318 322 321 318 318 316 306 301 289 284 275 273 265 243 246 233 233 228 231 238 244 250 250 254 251 240 238 242 240 223 216 224 221 227 231
264 200 213 219 312 278 227 270 289 258 242 294 325 327 322 320 323 317 313 311 303 307 292 284 271 269 259 242 240 233 224 225 230 238 246 249 247 249 239 230 230 228 218 207 214 221 214 216 234
163 211 312 14 266 248 257 259 250 273 288 298 302 306 313 328 332 325 316 308 297 319 302 283 265 257 249 241 240 234 228 233 236 240 244 243 241 237 226 223 220 218 204 212 210 207 214 226 236
353 276 82 131 172 216 291 257 217 249 269 267 278 297 308 324 324 322 316 306 293 320 312 301 262 253 243 235 235 235 234 234 235 244 243 239 235 227 220 218 217 206 206 208 206 208 217 227 237
172 206 151 133 266 235 238 270 271 269 255 264 268 286 301 322 329 323 329 324 309 313 317 323 273 260 241 238 231 236 234 235 240 240 239 235 224 223 218 215 209 202 201 206 206 213 221 229 234